sat.trackr.live / text

‹ back to catalog

GPS BIII-4 (PRN 14)

NORAD 46826 · 2020-078A

PAYLOAD ACTIVE UNKNOWN

§ Identity

Operator
Country
US
Launch date
2020-11-05
Launch site
AFETR
Launch vehicle
Mass (kg)
RCS (m²)

Purposes: earth_obs, nav

External: N2YO · Heavens-Above · Gunter

§ Orbital elements

Epoch: 2026-05-24T13:42:57.718368Z

Period
717.97 min
Inclination
53.9826°
Eccentricity
0.0072472
Mean motion
2.00564895 rev/d
Perigee alt
19,989.6 km
Apogee alt
20,374.6 km
Semi-major
26,560.2 km
B*
0.0000e+0
RAAN
211.7364°
Arg perigee
206.5980°
Mean anomaly
323.6091°
Rev number
4,103

§ Raw data

GPS BIII-4  (PRN 14)1 46826U 20078A   26144.57150137 -.00000006  00000+0  00000+0 0  99942 46826  53.9826 211.7364 0072472 206.5980 323.6091  2.00564895 41038

JSON: /api/v1/satellites/46826 · /tle

For live sub-satellite position, see the globe view (requires WebGL).

§ Visibility from observer

Set your observer location to see the next 7 days of passes ≥ 10°. The values pass through the URL so the page stays shareable.

No JS? Fill the form by hand. The geolocation button needs JavaScript.